• In Hungary
  • List of Countries
  • For 7 days
  • Water Temperature
  • Satellite Maps
  • Weather Map
  • News
  • Weather Widgets
  • user-avatar
    Login

    Hourly Weather Mokryy Log

    Today, 17 December, Sunday

    Time Temperature Precipitation Wind Pressure Humidity
    00:00 +4°C° 0 mm 7 mps 760 mmHg 88%
    01:00 +4°C° 0 mm 7 mps 760 mmHg 88%
    02:00 +4°C° 0 mm 7 mps 760 mmHg 89%
    03:00 +3°C° 0 mm 6 mps 760 mmHg 90%
    04:00 +3°C° 0 mm 6 mps 760 mmHg 90%
    05:00 +3°C° 0 mm 6 mps 760 mmHg 89%
    06:00 +3°C° 0 mm 7 mps 760 mmHg 89%
    07:00 +3°C° 0 mm 7 mps 760 mmHg 88%
    08:00 +3°C° 0 mm 7 mps 760 mmHg 87%
    09:00 +3°C° 0 mm 7 mps 760 mmHg 87%
    10:00 +4°C° 0 mm 7 mps 760 mmHg 83%
    11:00 +5°C° 0 mm 7 mps 760 mmHg 79%
    12:00 +6°C° 0 mm 7 mps 760 mmHg 75%
    13:00 +6°C° 0 mm 7 mps 760 mmHg 74%
    14:00 +7°C° 0 mm 6 mps 760 mmHg 73%
    15:00 +8°C° 0 mm 5 mps 760 mmHg 72%
    16:00 +7°C° 0 mm 5 mps 760 mmHg 74%
    17:00 +5°C° 0 mm 6 mps 760 mmHg 77%
    18:00 +5°C° 0 mm 6 mps 760 mmHg 80%
    19:00 +5°C° 0 mm 6 mps 760 mmHg 81%
    20:00 +4°C° 0 mm 6 mps 760 mmHg 82%
    21:00 +4°C° 0 mm 6 mps 760 mmHg 83%
    22:00 +4°C° 0 mm 6 mps 760 mmHg 83%
    23:00 +5°C° 0 mm 5 mps 760 mmHg 84%

    Tomorrow, 18 December, Monday

    Time Temperature Precipitation Wind Pressure Humidity
    00:00 +5°C° 0 mm 5 mps 760 mmHg 84%
    01:00 +5°C° 0.1 mm 5 mps 759 mmHg 84%
    02:00 +5°C° 0.1 mm 5 mps 759 mmHg 84%
    03:00 +5°C° 0.1 mm 5 mps 759 mmHg 84%
    04:00 +4°C° 0.1 mm 6 mps 759 mmHg 85%
    05:00 +4°C° 0.1 mm 6 mps 758 mmHg 86%
    06:00 +4°C° 0.1 mm 6 mps 758 mmHg 87%
    07:00 +4°C° 0.2 mm 6 mps 758 mmHg 87%
    08:00 +4°C° 0.2 mm 7 mps 758 mmHg 87%
    09:00 +4°C° 0.2 mm 7 mps 758 mmHg 88%
    10:00 +5°C° 0.1 mm 7 mps 758 mmHg 85%
    11:00 +5°C° 0.1 mm 7 mps 758 mmHg 83%
    12:00 +6°C° 0.1 mm 7 mps 758 mmHg 81%
    13:00 +6°C° 0.2 mm 7 mps 757 mmHg 80%
    14:00 +6°C° 0.2 mm 7 mps 757 mmHg 80%
    15:00 +6°C° 0.2 mm 7 mps 757 mmHg 80%
    16:00 +6°C° 0.2 mm 7 mps 757 mmHg 81%
    17:00 +6°C° 0.2 mm 7 mps 758 mmHg 83%
    18:00 +7°C° 0.2 mm 6 mps 758 mmHg 84%
    19:00 +7°C° 0.1 mm 6 mps 758 mmHg 86%
    20:00 +7°C° 0.1 mm 5 mps 758 mmHg 88%
    21:00 +7°C° 0.1 mm 5 mps 758 mmHg 90%
    22:00 +7°C° 0.2 mm 4 mps 758 mmHg 89%
    23:00 +7°C° 0.2 mm 4 mps 758 mmHg 89%

    Day after tomorrow, 19 December, Tuesday

    Time Temperature Precipitation Wind Pressure Humidity
    00:00 +7°C° 0.2 mm 3 mps 759 mmHg 89%
    01:00 +7°C° 0.4 mm 3 mps 759 mmHg 89%
    02:00 +7°C° 0.4 mm 2 mps 759 mmHg 90%
    03:00 +7°C° 0.4 mm 2 mps 759 mmHg 90%
    04:00 +7°C° 0.2 mm 2 mps 759 mmHg 89%
    05:00 +6°C° 0.2 mm 2 mps 759 mmHg 89%
    06:00 +5°C° 0.2 mm 3 mps 759 mmHg 88%
    07:00 +6°C° 1 mm 2 mps 759 mmHg 88%
    08:00 +6°C° 1 mm 2 mps 760 mmHg 89%
    09:00 +5°C° 1 mm 2 mps 760 mmHg 89%
    10:00 +6°C° 0.5 mm 2 mps 760 mmHg 86%
    11:00 +6°C° 0.5 mm 2 mps 761 mmHg 84%
    12:00 +6°C° 0.5 mm 2 mps 761 mmHg 82%
    13:00 +5°C° 0 mm 3 mps 761 mmHg 78%
    14:00 +5°C° 0 mm 3 mps 761 mmHg 75%
    15:00 +5°C° 0 mm 3 mps 761 mmHg 72%
    16:00 +5°C° 0 mm 3 mps 762 mmHg 74%
    17:00 +5°C° 0 mm 2 mps 762 mmHg 76%
    18:00 +4°C° 0 mm 2 mps 762 mmHg 79%
    19:00 +4°C° 0 mm 2 mps 763 mmHg 79%
    20:00 +3°C° 0 mm 2 mps 763 mmHg 80%
    21:00 +3°C° 0 mm 2 mps 763 mmHg 80%
    22:00 +3°C° 0 mm 2 mps 763 mmHg 81%
    23:00 +2°C° 0 mm 2 mps 764 mmHg 82%

    20 December, Wednesday

    Time Temperature Precipitation Wind Pressure Humidity
    00:00 +2°C° 0 mm 2 mps 764 mmHg 83%
    01:00 +3°C° 0 mm 1 mps 764 mmHg 83%
    02:00 +2°C° 0 mm 1 mps 764 mmHg 83%
    03:00 +2°C° 0 mm 1 mps 765 mmHg 83%
    04:00 +2°C° 0 mm 1 mps 765 mmHg 82%
    05:00 +2°C° 0 mm 1 mps 765 mmHg 81%
    06:00 +2°C° 0 mm 0 mps 765 mmHg 79%
    07:00 +3°C° 0 mm 1 mps 765 mmHg 78%
    08:00 +3°C° 0 mm 1 mps 766 mmHg 77%
    09:00 +3°C° 0 mm 1 mps 766 mmHg 76%
    10:00 +4°C° 0 mm 1 mps 766 mmHg 73%
    11:00 +4°C° 0 mm 1 mps 766 mmHg 69%
    12:00 +4°C° 0 mm 2 mps 766 mmHg 66%
    13:00 +4°C° 0 mm 2 mps 766 mmHg 67%
    14:00 +4°C° 0 mm 2 mps 766 mmHg 68%
    15:00 +5°C° 0 mm 2 mps 765 mmHg 69%
    16:00 +4°C° 0 mm 2 mps 765 mmHg 74%
    17:00 +3°C° 0 mm 3 mps 765 mmHg 78%
    18:00 +3°C° 0 mm 3 mps 765 mmHg 82%
    19:00 +3°C° 0.7 mm 3 mps 765 mmHg 85%
    20:00 +3°C° 0.7 mm 3 mps 765 mmHg 89%
    21:00 +3°C° 0.7 mm 4 mps 765 mmHg 92%
    22:00 +3°C° 1 mm 4 mps 765 mmHg 93%
    23:00 +4°C° 1 mm 4 mps 765 mmHg 93%

    21 December, Thursday

    Time Temperature Precipitation Wind Pressure Humidity
    00:00 +4°C° 1 mm 4 mps 765 mmHg 94%
    01:00 +2°C° 0.7 mm 5 mps 764 mmHg 92%
    02:00 +2°C° 0.7 mm 5 mps 764 mmHg 91%
    03:00 +2°C° 0.7 mm 6 mps 764 mmHg 89%
    04:00 +2°C° 0.9 mm 6 mps 763 mmHg 88%
    05:00 +2°C° 0.9 mm 6 mps 763 mmHg 87%
    06:00 +2°C° 0.9 mm 7 mps 763 mmHg 86%
    07:00 0°C° 0.7 mm 7 mps 762 mmHg 87%
    08:00 0°C° 0.7 mm 7 mps 762 mmHg 88%
    09:00 0°C° 0.7 mm 7 mps 762 mmHg 89%
    10:00 +2°C° 0.4 mm 7 mps 762 mmHg 89%
    11:00 +2°C° 0.4 mm 7 mps 762 mmHg 89%
    12:00 +2°C° 0.4 mm 7 mps 762 mmHg 88%
    13:00 +1°C° 0.1 mm 8 mps 762 mmHg 84%
    14:00 +1°C° 0.1 mm 8 mps 762 mmHg 80%
    15:00 0°C° 0.1 mm 8 mps 762 mmHg 76%
    16:00 0°C° 0 mm 8 mps 763 mmHg 76%
    17:00 -1°C° 0 mm 7 mps 763 mmHg 75%
    18:00 -1°C° 0 mm 6 mps 764 mmHg 75%
    19:00 -1°C° 0 mm 6 mps 764 mmHg 75%
    20:00 -2°C° 0 mm 6 mps 764 mmHg 75%
    21:00 -1°C° 0 mm 5 mps 764 mmHg 75%
    22:00 -1°C° 0 mm 5 mps 764 mmHg 76%
    23:00 -2°C° 0 mm 5 mps 764 mmHg 77%

    22 December, Friday

    Time Temperature Precipitation Wind Pressure Humidity
    00:00 -2°C° 0 mm 4 mps 764 mmHg 78%
    01:00 -2°C° 0 mm 4 mps 763 mmHg 78%
    02:00 -2°C° 0 mm 3 mps 763 mmHg 78%
    03:00 -2°C° 0 mm 3 mps 763 mmHg 78%
    04:00 -2°C° 0 mm 2 mps 762 mmHg 79%
    05:00 -2°C° 0 mm 2 mps 762 mmHg 80%
    06:00 -2°C° 0 mm 2 mps 762 mmHg 81%
    07:00 -2°C° 0 mm 2 mps 762 mmHg 80%
    08:00 -2°C° 0 mm 2 mps 762 mmHg 80%
    09:00 -2°C° 0 mm 2 mps 762 mmHg 79%
    10:00 -1°C° 0 mm 3 mps 761 mmHg 75%
    11:00 0°C° 0 mm 3 mps 761 mmHg 71%
    12:00 0°C° 0 mm 3 mps 761 mmHg 67%
    13:00 0°C° 0 mm 3 mps 761 mmHg 67%
    14:00 0°C° 0 mm 3 mps 761 mmHg 67%
    15:00 +1°C° 0 mm 3 mps 761 mmHg 67%
    16:00 0°C° 0 mm 3 mps 760 mmHg 70%
    17:00 0°C° 0 mm 3 mps 760 mmHg 74%
    18:00 -1°C° 0 mm 2 mps 760 mmHg 78%
    19:00 -1°C° 0 mm 2 mps 760 mmHg 80%
    20:00 -1°C° 0 mm 3 mps 760 mmHg 81%
    21:00 -1°C° 0 mm 3 mps 760 mmHg 83%
    22:00 -1°C° 0 mm 3 mps 760 mmHg 84%
    23:00 -1°C° 0 mm 2 mps 759 mmHg 85%
    Show more